User: anonymous   Login
Location: Unspecified
(48.5670°N, 0.0000°E)
Time: 05:41:11
(UTC+00:00)
Language:

Transit 2A Rocket - Orbit

View from above orbital plane
View from above orbital plane
View from above satellite
View from above satellite

Ground track
Ground track

The orbit data is extracted from the following two-line orbital elements,

1    47U 60007C   19198.81570275 -.00000046  00000-0  14955-4 0  9996
2    47  66.6668 332.3997 0229453 190.7382 168.8781 14.42042140 86737
Epoch (UTC): 17 July 2019 19:34:36
Eccentricity: 0.0229453
inclination: 66.6668°
perigee height: 588 km
apogee height: 915 km
right ascension of ascending node: 332.3997°
argument of perigee: 190.7382°
revolutions per day: 14.42042140
mean anomaly at epoch: 168.8781°
orbit number at epoch: 8673

The dashed part of the orbit path shows where the satellite is in the earth's shadow,  

DLR